DECAYED

CZ-6A DEB, 61332 (Decayed)

Orbit data source: Space-Track

CZ-6A DEB, 61332 was space debris in LEO originally from a launch on Tue, 06 Aug 2024 UTC launched from the Taiyaun Space Center, China (TSC). Debris objects in space refer to the collection of defunct objects orbiting the Earth. Examples of debris include non-operational satellites, rocket bodies, and fragments generated from explosions, collisions, or faulty payload assembly.

Loading next visibility...
Identifier
61332, 2024-140UV
Orbit
Decayed
Country
Flag of CNCN / PRC
Related business
Manufacturer
SAST
Mission
Decayed spacecraft
Bus & Motor
Unknown
Mass
Unknown
Launch date (UTC)
2024-08-06 (2 years ago)
Launch vehicle
Unknown
Launch site
Taiyaun Space Center, China (TSC)
Object type
Payload
Rocket body
Debris
Shape & HBR
Unknown shape, 0.1 m
Radar Cross Section
Medium (>0.1 m² and <1 m²)

Expand to show TLE details & history
Last TLE update: 1 year ago

TLE from 1 year ago
0 CZ-6A DEB
1 61332U 24140UV  25073.70157946  .17206810  00000-0  58977-1 0  9994
2 61332  88.9950 325.6457 0010409 134.8871 225.3257 15.85715202 28523
Epoch: 2025-03-14T16:50Z
TLE epoch observation values (Epoch: 2025-03-14T16:50:16.465Z)
Latitude
-0.00001°
Longitude
-99.48059°
Altitude
322.501 km
Speed
7.712 km/s
True Right ascension
21h 42m 34s
True Declination
0° 00' 00"
Sunlit
Object was in daylight at epoch
Visualization orbit readout
Latitude
Unknown
Longitude
Unknown
Altitude
Unknown
Speed
Unknown
Apparent Right ascension
Unknown
Apparent Declination
Unknown
Sunlit
N/A
Visualization observer readout
Local Sidereal Time
10:17:08
Azimuth
Unknown
Elevation
Unknown
Doppler factor
Unknown
Orbital elements
Apogee altitude
317.992 km
Perigee altitude
304.067 km
Semi-major axis
6,689.167 km
Eccentricity
0.00104
Inclination
88.995°
RAAN
325.6457°
Arg. of periapsis
134.8871°
True anomaly
225.24096°
Mean anomaly
225.3257°
Eccentric anomaly
225.28332°
Mean motion
3.96721 °/min
Orbital period
90.74 mins
BSTAR
0.058977
Loading maneuver chart data...
Computing Atmospheric mass density...
Loading historical data...
Loading historical data...
Loading historical data...
Loading historical data...
Loading historical data...
Loading historical data...
Loading historical data...

Documentation

Showing up to 5 results
|